Location: Street
(51.1247°N, 2.7429°W)
Time: 10:17:01
(UTC+00:00)

Tiros 1 - Pass Details

Date: 26 November 2020
Orbit: 630 x 663 km, 48.4° (Epoch: 21 January)

Event Time Altitude Azimuth Distance (km) Brightness Sun altitude
Rises 18:56:39 0° 261° (W) 2,987 11.9 -25.3°
Reaches altitude 10° 18:59:01 10° 258° (WSW) 2,072 10.7 -25.7°
Enters shadow 19:03:18 60° 208° (SSW) 751 7.5 -26.4°
Maximum altitude 19:03:45 64° 178° (S) 728 - -26.4°
Drops below altitude 10° 19:08:26 10° 97° (E) 2,053 - -27.2°
Sets 19:10:46 0° 95° (E) 2,958 - -27.5°
